Observations for Trim Market St
| Time | AQI | Temp °C | Hum % | Pres Pa | CO μg/m³ | H₂S μg/m³ | NO μg/m³ | NO₂ μg/m³ | O₃ μg/m³ | SO₂ μg/m³ | PM1 μg/m³ | PM2.5 μg/m³ | PM10 μg/m³ |
|---|---|---|---|---|---|---|---|---|---|---|---|---|---|
| Friday 10 July 2026 | |||||||||||||
| 03:03 | 1 | 17.8 | 76 | 31,624 | 0 | 0 | 0 | 4.34 | 9.25 | 0 | 3.56 | 6.6 | 9.9 |
| 03:02 | 1 | 17.8 | 76 | 31,724 | 0 | 0 | 0 | 3.45 | 9.18 | 0 | 4.28 | 7.09 | 10.5 |
| 03:01 | 1 | 17.8 | 76 | 31,795 | 0 | 0 | 0 | 4.05 | 10.84 | 0 | 4.28 | 5.65 | 8.72 |
| 03:00 | 1 | 17.8 | 76 | 31,812 | 0 | 0 | 0 | 1.75 | 16.16 | 0 | 5.7 | 6.61 | 9.9 |
| 02:42 | 1 | 18.1 | 75 | 33,978 | 0 | 0 | 0 | 3.32 | 9.35 | 0 | 3.56 | 4.24 | 8.13 |
| 02:41 | 1 | 18.1 | 75 | 33,978 | 0 | 0 | 0 | 2.53 | 8.18 | 0 | 4.28 | 5.68 | 8.72 |
| 02:31 | 1 | 18.3 | 75 | 34,879 | 0 | 0 | 0 | 3.79 | 7.91 | 0 | 3.56 | 6.17 | 9.32 |
| 02:29 | 1 | 18.4 | 75 | 34,949 | 0 | 0 | 0 | 3.36 | 11.36 | 0 | 3.56 | 7.6 | 11.71 |
| 02:27 | 1 | 18.4 | 75 | 34,932 | 0 | 0 | 0 | 2.56 | 5.68 | 0 | 4.28 | 6.17 | 9.32 |
| 02:26 | 1 | 18.4 | 75 | 35,075 | 0 | 0 | 0 | 9.36 | 13.11 | 0 | 4.28 | 6.64 | 9.92 |
| 02:25 | 1 | 18.4 | 75 | 35,240 | 0 | 0 | 0 | 3.56 | 9.59 | 0 | 4.99 | 6.17 | 9.92 |
| 02:24 | 1 | 18.5 | 75 | 35,215 | 0 | 0 | 0 | 6.43 | 9.93 | 0 | 3.56 | 5.69 | 8.72 |
| 02:23 | 1 | 18.5 | 75 | 35,193 | 0 | 0 | 0 | 4.13 | 5.93 | 0 | 3.56 | 4.73 | 7.53 |
| 02:21 | 1 | 18.5 | 75 | 35,117 | 0 | 0 | 0 | 6.43 | 7.79 | 0 | 4.99 | 6.17 | 9.32 |
| 02:20 | 1 | 18.5 | 75 | 35,138 | 0 | 0 | 0 | 5.33 | 5.73 | 0 | 4.28 | 5.21 | 8.72 |
| 02:19 | 1 | 18.6 | 75 | 35,161 | 0 | 0 | 0 | 5.01 | 9.69 | 0 | 4.99 | 6.17 | 9.32 |
| 02:18 | 1 | 18.6 | 75 | 35,190 | 0 | 0 | 0 | 3.51 | 8.58 | 0 | 3.56 | 4.73 | 8.13 |
| 02:17 | 1 | 18.6 | 75 | 35,404 | 0 | 0 | 0 | 7.41 | 8.95 | 0 | 4.28 | 5.21 | 8.13 |
| 02:15 | 1 | 18.6 | 75 | 36,151 | 0 | 0 | 0 | 3.11 | 8.26 | 0 | 3.56 | 5.69 | 9.32 |
| 02:14 | 1 | 18.6 | 75 | 36,726 | 0 | 0 | 0.48 | 8.03 | 14.28 | 0 | 5.7 | 7.13 | 10.52 |